Temperature
23 22 21 20 20 19 19 19 19 19 19 18 18 18 18 18 18 18 18 18 18 18 18 18 18 18 18 18 18 18 17 18 17 18 18 18 18 18 18 18 17 17 17
23 22 21 20 20 19 19 19 19 19 19 19 19 18 18 18 18 18 18 18 18 18 18 18 18 18 18 17 18 17 17 17 17 18 19 19 19 18 18 18 17 17 17
24 22 21 21 20 20 19 19 19 19 19 19 18 18 18 18 18 17 18 18 18 18 18 18 18 18 18 17 17 17 17 17 17 17 18 19 19 19 18 18 18 17 17
24 23 22 21 21 20 19 19 19 19 19 19 18 18 18 18 17 17 17 17 17 17 18 18 18 17 17 17 17 17 17 17 17 17 17 17 18 18 18 18 18 17 17
24 23 22 21 21 20 20 19 19 19 19 18 18 18 18 18 18 17 17 17 17 17 17 17 17 17 17 17 17 17 17 17 17 17 17 17 17 17 18 18 18 18 17
24 23 22 21 21 20 20 19 19 19 19 19 18 18 18 18 17 17 17 17 17 17 17 17 17 17 17 17 17 17 17 17 17 17 17 17 17 17 17 17 17 18 18
24 23 22 21 21 20 20 20 19 19 19 19 18 18 18 18 17 17 17 17 17 17 17 17 17 17 17 16 16 16 16 16 16 16 16 16 17 17 17 17 17 17 18
24 23 22 22 21 21 20 19 19 19 19 19 19 18 18 18 18 17 17 17 17 17 17 16 17 17 16 16 16 16 16 16 16 16 16 16 16 16 16 17 17 17 18
24 23 23 22 21 21 20 20 19 19 19 19 19 18 18 18 17 17 17 17 17 17 16 16 16 16 16 16 16 16 16 16 16 16 16 16 16 16 16 16 16 16 17
24 23 23 22 22 21 20 20 19 19 19 19 19 18 18 18 18 17 17 17 17 17 16 16 16 16 16 16 16 15 15 15 15 15 15 15 15 15 15 16 16 16 16
24 23 23 22 21 21 20 20 19 19 19 18 18 18 18 18 17 17 17 17 17 16 16 16 16 16 16 15 15 15 15 15 15 15 15 15 15 15 15 15 15 16 16
24 23 22 22 21 21 20 20 19 19 19 18 18 18 18 17 17 17 17 17 16 16 16 16 16 16 15 15 15 15 15 15 15 15 14 14 15 14 15 15 15 15 15
23 22 22 21 21 20 20 20 19 19 18 18 18 18 17 17 17 17 17 16 16 16 16 16 15 15 15 15 15 15 15 15 15 14 14 14 14 14 14 14 15 15 15
22 22 21 21 20 20 19 19 19 19 18 18 18 18 17 17 17 17 16 16 16 16 16 15 15 15 15 15 15 15 15 15 14 14 14 14 14 14 14 14 14 14 14
22 21 21 20 20 19 19 19 18 18 18 18 17 17 17 17 17 16 16 16 16 16 15 15 15 15 15 15 15 14 14 14 14 14 14 14 14 14 14 14 14 14 14
21 21 20 20 19 19 19 19 18 18 18 17 17 17 17 16 16 16 16 16 15 15 15 15 15 14 15 15 15 14 14 14 14 14 14 14 14 14 14 14 14 14 13
21 20 20 19 19 19 18 18 18 18 18 17 17 17 16 16 16 16 16 15 15 15 15 14 14 14 14 14 14 14 14 14 13 13 13 13 14 13 13 13 14 14 14
20 20 19 19 19 18 18 18 18 17 17 17 16 16 16 16 16 16 15 15 15 15 14 14 14 14 14 14 14 14 14 13 13 13 13 13 13 13 13 13 13 13 13
19 19 19 19 18 18 18 17 17 17 17 16 16 16 16 15 15 15 15 15 15 14 14 14 14 14 14 14 14 14 13 13 13 13 13 12 12 13 13 13 12 13 13
19 19 18 18 18 17 17 17 17 16 16 16 16 15 15 15 15 15 15 15 14 14 14 14 14 14 13 13 13 13 13 13 13 13 13 13 12 12 12 12 12 12 13
18 18 17 17 17 17 17 16 16 16 16 15 15 15 15 15 15 15 15 14 14 14 14 14 14 13 13 13 13 13 13 12 12 12 12 12 12 12 12 12 12 12 12
17 17 17 16 16 16 16 16 16 15 15 15 15 15 15 15 15 14 14 14 14 14 14 13 13 13 13 13 13 13 13 12 12 12 12 12 12 12 12 12 12 12 12
16 16 16 16 16 16 16 16 15 15 15 15 15 14 14 14 14 14 14 14 14 14 14 13 13 13 13 12 12 12 12 12 12 12 12 12 12 12 11 11 12 11 11
16 16 16 16 15 15 15 15 15 15 14 14 14 14 14 14 14 14 14 13 13 13 13 13 13 12 12 12 12 12 12 11 11 11 11 12 12 11 11 11 11 11 11
15 15 15 15 15 15 15 15 15 14 14 14 14 14 14 13 13 13 13 13 13 13 12 12 12 12 12 12 12 11 11 11 11 11 11 11 11 11 11 11 11 11 10
15 15 15 15 15 15 14 14 14 14 14 14 14 14 14 13 13 13 13 13 13 12 12 12 12 11 11 11 11 11 11 11 11 11 11 11 11 11 11 10 11 10 10
Wind_Speed
5 5 5 5 4 3 3 2 2 2 1 0 0 0 1 1 1 1 2 2 3 3 2 3 2 2 2 2 2 1 1 1 1 2 1 1 2 1 2 2 2 3 4
6 6 5 5 5 4 3 3 3 2 1 0 0 1 1 1 1 2 2 2 2 3 2 3 3 2 1 1 2 1 2 1 1 2 2 1 2 2 1 2 2 3 3
7 7 6 6 5 5 4 3 2 2 1 0 1 0 0 0 1 1 1 2 2 2 3 2 3 3 2 2 2 2 2 2 1 1 2 2 2 1 1 2 1 2 2
7 7 7 7 6 5 5 4 3 2 1 1 1 1 1 1 2 1 2 2 2 2 2 2 2 3 2 2 2 2 2 3 2 1 2 3 3 3 1 1 1 2 3
6 7 7 7 6 6 5 5 4 3 2 2 1 2 1 1 1 2 2 2 2 2 3 2 2 2 2 2 3 2 3 3 3 3 2 2 2 3 3 3 2 2 3
5 6 6 6 6 6 6 6 5 4 3 3 2 1 1 1 2 2 2 1 1 2 3 2 2 2 2 2 2 2 2 3 3 4 3 2 2 3 3 4 4 3 3
5 5 6 7 7 7 7 6 6 5 4 4 3 3 2 1 1 2 1 2 2 1 2 3 3 3 2 2 2 2 3 2 3 3 3 3 3 3 3 4 4 4 3
4 4 5 6 7 7 7 6 6 5 4 4 4 3 3 2 1 1 2 2 2 2 2 2 2 3 3 3 2 2 2 2 2 3 4 4 3 3 3 4 4 4 4
4 4 4 5 6 7 7 7 6 6 5 5 4 3 3 2 2 1 2 2 2 2 2 2 2 2 3 3 3 2 2 2 3 3 3 4 3 4 3 4 4 4 5
4 4 4 4 5 6 7 7 6 6 5 5 4 3 3 3 2 2 1 2 2 2 2 2 2 2 2 3 3 3 2 3 3 3 4 4 4 4 4 4 4 4 5
4 4 4 4 5 5 6 7 6 6 5 4 3 3 3 2 2 2 2 1 2 2 2 2 2 3 3 3 3 4 3 4 3 4 4 5 5 5 5 4 4 5 5
3 3 4 4 4 5 5 6 6 6 5 4 4 4 3 3 2 2 2 2 2 2 2 2 3 3 3 3 4 5 4 4 4 4 4 5 4 5 6 5 5 5 5
3 3 3 4 3 3 4 4 5 5 5 5 5 4 3 3 2 2 2 2 2 2 2 2 3 3 3 4 4 5 5 5 5 5 5 5 5 6 5 6 6 6 6
3 3 3 3 3 2 3 3 3 4 4 4 4 4 3 3 3 2 2 2 2 2 2 2 3 3 4 4 5 5 5 5 6 5 6 6 5 6 6 6 6 6 7
3 3 2 2 2 1 1 1 2 2 3 4 4 3 3 3 2 2 2 2 3 2 2 3 3 4 4 4 5 6 6 6 6 6 6 6 4 5 6 7 6 6 6
1 1 2 2 2 2 1 2 2 2 2 2 2 2 2 2 2 2 2 2 3 3 3 3 3 4 3 4 5 7 6 6 6 6 6 6 5 6 7 8 9 8 8
0 1 2 2 2 2 2 2 3 3 2 2 1 1 1 2 2 2 2 2 3 3 3 3 4 4 3 3 4 6 7 6 6 6 6 6 6 6 7 8 10 10 11
1 0 0 1 2 2 3 2 2 2 2 1 0 1 1 1 2 2 2 3 3 3 4 4 4 4 3 3 5 7 7 6 6 5 5 6 7 7 8 9 8 8 8
0 0 0 1 2 2 3 3 2 2 1 0 1 1 2 2 2 3 3 3 4 4 4 4 4 5 4 3 4 7 6 6 6 6 5 6 7 6 7 8 8 9 8
1 1 1 2 2 2 2 2 1 1 1 1 1 2 2 2 3 3 4 4 4 5 5 4 4 5 5 2 3 6 6 6 6 6 6 3 5 6 5 7 8 9 9
1 2 2 1 1 1 1 1 1 0 1 1 1 1 2 2 3 3 4 4 4 4 5 5 5 5 4 3 2 4 5 6 7 6 6 5 3 5 5 7 7 9 10
1 1 1 1 1 1 1 1 1 1 1 1 2 3 3 3 2 3 3 4 4 4 4 5 5 4 3 3 2 4 6 7 7 6 6 5 4 5 6 5 7 8 8
0 0 1 1 0 0 0 1 1 1 2 2 3 3 3 3 3 3 4 4 4 4 4 4 5 5 4 3 2 4 6 8 6 6 6 7 7 7 6 6 7 6 5
0 0 0 0 0 1 1 1 2 2 2 2 3 3 3 3 3 3 4 4 4 4 5 5 5 4 4 5 5 5 5 5 6 7 6 8 8 7 6 5 5 3 4
1 1 1 1 1 1 1 2 3 3 3 3 3 3 3 3 3 3 3 3 3 3 4 5 5 5 5 5 6 6 6 6 7 7 6 5 5 4 4 4 3 3 3
1 1 1 1 2 2 2 2 3 3 3 3 3 3 2 2 3 3 2 1 2 2 3 4 5 4 5 7 7 7 8 8 8 6 5 4 4 5 5 5 4 3 3
Wind_Direction
188 178 174 168 165 159 160 166 157 144 185 189 283 270 95 57 56 57 46 25 10 10 351 350 359 336 6 353 346 329 345 344 328 283 235 186 190 207 205 222 215 200 199
194 186 178 178 179 172 175 181 181 171 200 129 319 294 347 16 50 11 36 14 12 358 358 359 345 355 340 356 351 324 326 339 337 307 297 269 176 205 196 208 208 218 205
205 194 185 186 183 182 184 188 182 164 170 221 222 79 154 287 55 30 27 14 10 13 1 359 346 345 331 353 331 319 310 314 315 327 314 313 341 346 171 218 233 243 233
209 200 188 187 188 187 180 183 184 183 174 206 233 257 322 357 12 359 20 13 9 0 2 354 343 330 338 350 315 349 310 302 304 306 297 308 321 304 297 234 229 235 239
204 197 195 188 190 185 181 181 179 176 175 195 223 253 298 340 356 5 16 355 18 359 358 359 347 337 334 342 333 336 315 302 301 301 296 295 277 273 279 294 296 259 239
197 197 192 186 187 184 183 184 174 175 176 177 182 216 286 318 341 351 348 340 13 15 12 2 350 336 340 334 321 315 308 317 317 306 303 294 294 293 284 281 278 281 267
191 190 187 189 190 191 188 185 175 179 177 177 187 201 223 233 265 296 322 321 341 8 9 359 348 336 330 318 313 306 316 314 306 294 297 298 298 300 287 284 289 289 277
184 184 188 188 190 192 187 186 184 189 188 188 195 205 216 230 232 254 298 310 323 349 358 345 343 339 326 323 320 311 310 307 293 298 300 289 295 295 290 288 291 291 282
166 172 176 180 183 186 185 187 188 190 196 198 195 196 208 236 259 261 263 290 307 311 336 329 332 339 342 330 310 321 319 311 293 291 285 286 293 288 289 283 279 283 287
153 149 158 169 173 177 177 182 185 190 195 198 202 191 201 215 228 250 289 301 305 314 307 309 315 323 326 324 315 308 316 298 297 298 302 294 291 290 283 280 276 271 278
159 150 148 154 163 171 176 181 184 190 193 195 195 203 205 209 213 222 236 250 275 288 290 295 302 306 309 310 305 305 307 294 292 291 288 286 293 292 288 282 278 274 273
159 154 149 149 161 173 181 185 191 194 194 191 194 199 206 209 212 214 229 241 255 264 275 288 292 293 300 301 297 297 297 292 293 292 292 290 286 283 285 288 283 280 275
144 145 145 145 155 171 181 193 196 197 197 191 195 195 199 205 218 226 232 238 246 262 278 287 293 297 300 298 296 294 289 286 285 286 286 288 289 284 285 282 282 279 273
154 155 151 141 148 167 180 199 203 199 196 193 194 197 205 217 230 237 242 241 245 261 279 285 288 289 290 296 296 295 293 290 286 285 284 284 286 287 286 276 275 278 278
154 158 155 140 149 162 173 177 184 183 189 194 198 202 207 217 231 239 248 253 254 259 272 283 289 290 285 304 307 297 289 287 286 284 282 279 279 295 288 289 290 283 276
142 161 158 147 156 161 154 145 162 166 168 180 192 208 214 219 228 241 247 254 259 269 273 280 286 292 308 343 325 300 291 286 285 287 286 281 268 268 260 267 276 281 277
88 144 160 151 149 151 149 157 157 150 152 158 208 269 249 249 261 267 263 259 258 262 267 275 279 285 306 335 313 297 287 286 288 288 289 293 296 293 287 268 251 253 249
262 206 162 139 133 111 111 116 127 135 143 149 219 273 279 283 271 266 270 271 268 266 268 274 281 282 298 320 302 296 276 285 288 286 288 291 297 300 298 288 284 276 263
14 90 157 136 115 107 103 101 99 100 100 72 330 304 303 302 297 291 283 279 273 269 267 266 270 277 288 308 296 295 282 283 284 283 282 286 292 307 304 288 287 286 280
51 86 103 115 114 105 109 116 109 91 49 4 332 312 301 293 292 296 292 286 276 273 275 279 277 277 286 305 289 290 285 289 288 283 278 272 282 300 297 285 288 290 292
94 103 112 108 95 92 116 151 166 247 328 326 319 305 297 281 281 287 291 295 291 292 289 288 283 282 290 287 269 277 284 292 290 291 289 297 282 278 279 278 285 293 299
107 101 98 77 69 78 141 181 218 246 245 265 289 294 297 296 297 291 293 295 292 284 282 285 290 293 293 306 287 250 263 289 292 292 296 305 298 272 269 273 286 293 296
71 73 89 79 30 346 232 221 257 266 249 240 253 275 291 295 297 287 286 285 283 290 298 301 304 310 322 321 256 244 255 264 277 290 298 299 283 269 260 251 259 272 285
292 213 172 168 304 301 247 238 260 257 244 246 257 263 276 288 293 294 298 298 306 308 311 315 311 313 318 325 328 314 296 275 274 287 281 254 247 250 266 272 262 269 289
283 270 253 243 261 263 255 254 253 248 247 252 260 267 280 296 297 303 313 305 318 316 309 312 313 317 317 331 325 308 307 305 306 302 296 295 293 288 284 282 286 288 286
241 258 261 261 269 270 269 264 258 252 256 258 262 269 281 290 290 296 296 319 259 226 239 268 293 310 322 320 312 303 298 298 294 291 294 298 294 291 290 284 283 281 284
Height
1528 1529 1530 1530 1531 1531 1530 1531 1530 1530 1530 1530 1531 1531 1531 1530 1530 1530 1529 1528 1527 1527 1526 1526 1524 1524 1523 1522 1521 1520 1520 1519 1519 1519 1518 1517 1517 1516 1516 1516 1516 1516 1516
1526 1528 1529 1529 1530 1530 1530 1530 1530 1530 1530 1530 1530 1530 1531 1531 1530 1530 1529 1528 1527 1526 1526 1525 1524 1523 1522 1521 1520 1520 1520 1519 1519 1519 1518 1517 1517 1516 1516 1515 1515 1515 1515
1523 1525 1527 1527 1528 1529 1529 1530 1530 1530 1530 1530 1530 1530 1530 1530 1530 1530 1529 1528 1527 1526 1526 1525 1524 1523 1523 1522 1520 1519 1519 1519 1519 1518 1518 1517 1516 1516 1516 1515 1515 1514 1514
1521 1523 1524 1525 1526 1528 1528 1528 1529 1529 1529 1530 1530 1530 1530 1531 1530 1530 1529 1528 1527 1526 1525 1524 1523 1522 1523 1521 1521 1520 1519 1519 1519 1518 1517 1517 1517 1516 1515 1515 1514 1513 1513
1518 1520 1522 1523 1525 1526 1527 1527 1527 1528 1528 1529 1529 1530 1530 1530 1530 1529 1528 1528 1527 1526 1525 1524 1523 1522 1522 1521 1520 1519 1518 1518 1518 1518 1517 1516 1516 1515 1515 1514 1513 1512 1512
1516 1518 1520 1521 1523 1524 1525 1526 1526 1526 1527 1527 1528 1529 1529 1529 1529 1529 1528 1528 1527 1526 1525 1524 1523 1522 1521 1520 1519 1518 1518 1517 1516 1516 1516 1516 1515 1515 1514 1513 1512 1511 1510
1514 1516 1518 1519 1521 1523 1524 1525 1525 1525 1526 1526 1527 1527 1528 1528 1528 1528 1528 1527 1527 1526 1524 1524 1522 1521 1520 1519 1518 1517 1517 1516 1515 1515 1514 1514 1514 1513 1513 1512 1511 1510 1509
1512 1514 1516 1518 1519 1521 1522 1523 1524 1524 1525 1525 1525 1526 1526 1527 1527 1526 1527 1526 1526 1525 1523 1522 1521 1520 1519 1519 1517 1517 1516 1514 1514 1514 1512 1512 1512 1511 1511 1510 1509 1508 1506
1511 1513 1514 1516 1517 1518 1520 1521 1522 1523 1524 1524 1524 1525 1525 1525 1526 1525 1525 1525 1524 1524 1522 1522 1521 1520 1518 1517 1516 1516 1514 1513 1513 1512 1511 1511 1510 1509 1509 1508 1507 1507 1505
1510 1512 1513 1514 1516 1517 1518 1519 1520 1521 1522 1523 1523 1524 1524 1524 1524 1524 1524 1523 1523 1522 1521 1520 1519 1518 1517 1516 1515 1515 1513 1512 1511 1510 1509 1508 1509 1508 1507 1506 1505 1504 1504
1509 1511 1512 1514 1515 1516 1517 1518 1519 1520 1521 1522 1522 1523 1523 1523 1523 1523 1522 1522 1521 1520 1519 1519 1518 1517 1516 1515 1514 1513 1511 1510 1510 1509 1508 1507 1506 1505 1505 1504 1503 1502 1501
1509 1510 1512 1513 1514 1515 1516 1517 1518 1519 1520 1520 1521 1521 1522 1522 1522 1521 1521 1520 1519 1518 1517 1517 1516 1515 1514 1513 1512 1511 1510 1509 1508 1507 1506 1505 1504 1502 1502 1501 1501 1500 1499
1509 1510 1511 1512 1513 1514 1515 1516 1516 1517 1518 1519 1519 1519 1520 1520 1520 1519 1519 1518 1517 1516 1516 1515 1514 1513 1512 1511 1510 1509 1508 1507 1506 1504 1503 1502 1501 1500 1500 1498 1498 1497 1496
1508 1509 1510 1511 1512 1513 1513 1514 1515 1516 1517 1517 1517 1517 1517 1517 1517 1517 1517 1516 1515 1514 1514 1513 1512 1510 1510 1509 1507 1506 1505 1504 1503 1502 1500 1500 1499 1497 1496 1495 1494 1493 1492
1508 1508 1509 1510 1511 1511 1512 1513 1514 1514 1514 1515 1515 1515 1515 1515 1515 1515 1514 1514 1513 1513 1511 1511 1509 1508 1508 1506 1505 1503 1503 1501 1500 1499 1497 1496 1495 1494 1493 1492 1491 1490 1489
1507 1508 1508 1509 1509 1510 1510 1511 1512 1512 1512 1513 1513 1513 1513 1513 1512 1512 1512 1511 1511 1510 1509 1508 1507 1506 1505 1503 1502 1501 1500 1498 1497 1496 1495 1494 1492 1490 1489 1488 1487 1486 1485
1506 1507 1507 1507 1508 1508 1509 1509 1510 1510 1510 1511 1511 1511 1511 1511 1510 1510 1510 1509 1508 1508 1507 1506 1505 1503 1502 1500 1499 1498 1497 1496 1494 1493 1491 1491 1489 1487 1486 1484 1483 1482 1480
1505 1506 1506 1506 1507 1508 1509 1509 1509 1510 1509 1509 1509 1509 1508 1508 1508 1508 1507 1506 1506 1505 1504 1503 1502 1501 1499 1498 1496 1495 1494 1492 1491 1489 1488 1486 1485 1483 1481 1480 1479 1477 1476
1504 1504 1505 1505 1506 1506 1507 1508 1508 1509 1509 1509 1509 1508 1507 1507 1506 1505 1505 1504 1504 1503 1502 1500 1499 1498 1497 1495 1494 1492 1491 1489 1488 1486 1484 1483 1481 1479 1478 1476 1474 1473 1472
1502 1503 1503 1504 1504 1505 1506 1506 1507 1507 1507 1508 1507 1507 1506 1505 1504 1503 1502 1502 1501 1500 1499 1498 1496 1495 1494 1492 1490 1489 1488 1486 1485 1483 1481 1479 1477 1476 1474 1472 1471 1469 1468
1501 1501 1502 1503 1503 1504 1504 1504 1505 1505 1505 1505 1505 1505 1504 1503 1502 1501 1499 1498 1498 1497 1496 1495 1494 1492 1490 1489 1487 1485 1484 1483 1481 1480 1478 1476 1474 1472 1470 1468 1467 1465 1464
1500 1501 1501 1501 1502 1502 1502 1502 1503 1503 1503 1503 1503 1502 1501 1501 1500 1498 1497 1496 1495 1494 1493 1492 1491 1489 1487 1485 1483 1482 1480 1478 1477 1476 1474 1473 1470 1468 1466 1465 1463 1462 1460
1499 1499 1499 1499 1500 1501 1501 1501 1501 1501 1500 1500 1500 1499 1499 1498 1497 1496 1494 1493 1493 1492 1491 1490 1489 1487 1485 1482 1480 1478 1476 1474 1473 1471 1469 1468 1466 1464 1463 1461 1459 1458 1457
1498 1498 1497 1497 1498 1498 1499 1498 1498 1498 1498 1497 1497 1497 1496 1495 1494 1493 1492 1491 1491 1490 1489 1488 1486 1485 1482 1479 1477 1475 1473 1472 1470 1468 1465 1463 1462 1460 1459 1458 1456 1455 1454
1496 1496 1496 1496 1496 1496 1496 1495 1495 1495 1494 1494 1494 1494 1494 1493 1492 1491 1489 1488 1487 1487 1486 1485 1484 1482 1480 1477 1475 1473 1470 1468 1466 1464 1462 1460 1459 1458 1456 1455 1453 1452 1451
1494 1494 1494 1494 1494 1494 1493 1493 1493 1492 1492 1492 1492 1492 1492 1491 1490 1488 1487 1485 1485 1484 1482 1481 1480 1478 1477 1474 1472 1469 1467 1465 1462 1460 1459 1457 1456 1455 1453 1452 1450 1449 1448